Regional Weather Roundup
Issued by NWS

Home | Current Version | Previous Version | Graphics & Text | Print | Product List | Glossary On
Versions: 1 2 3 4 5 6 7 8 9 10 11 12 13 14 15 16 17 18 19 20 21 22 23 24 25 26 27 28 29 30 31 32 33 34 35 36 37 38 39 40 41 42 43 44 45 46 47 48 49 50
000
ASUS45 KCYS 032210
RWRWY

WYOMING REGIONAL WEATHER ROUNDUP
NATIONAL WEATHER SERVICE CHEYENNE WY
400 PM MDT TUE MAY 03 2016

NOTE:  "FAIR" INDICATES FEW OR NO CLOUDS BELOW 12,000 FEET
WITH NO SIGNIFICANT WEATHER AND/OR OBSTRUCTIONS TO VISIBILITY.

WYZ001-032300-
YELLOWSTONE NATIONAL PARK

CITY           SKY/WX    TMP DP  RH WIND       PRES   REMARKS
LK YELLOWSTONE   N/A     53  22  29 VRB7      30.34F
W YELLOWSTONE  NOT AVBL

$$
WYZ002>013-054>058-071-098>099-032300-
NORTHERN WYOMING

CITY           SKY/WX    TMP DP  RH WIND       PRES   REMARKS
JACKSON        FAIR      66  18  15 W9        30.25F
CODY           FAIR      72  30  21 S7        30.16F
GREYBULL       FAIR      77  22  13 SW6       30.11F
WORLAND        FAIR      72  32  23 E5        30.14F
SHERIDAN       FAIR      73  36  25 CALM      30.14F
BUFFALO        FAIR      70  32  24 NW9       30.19F
GILLETTE       FAIR      70  39  32 NW8       30.15F
HULETT         FAIR      70  36  28 N8        30.15F
NEWCASTLE      FAIR      72  30  21 N13G21    30.12F

$$
WYZ014>020-022>026-101>103-032300-
CENTRAL WYOMING

CITY           SKY/WX    TMP DP  RH WIND       PRES   REMARKS
BIG PINEY      FAIR      66  20  17 S6        30.26F
PINEDALE       FAIR      64  21  19 CALM      30.27F
DUBOIS         FAIR      63  19  19 E12G18    30.25S
LANDER         FAIR      67  28  23 S5        30.20F
RIVERTON       FAIR      68  30  24 E6        30.22F
CASPER         FAIR      66  32  28 W6        30.20F
DOUGLAS        FAIR      69  36  29 N8G17     30.18F

$$
WYZ021-027>030-104>119-032300-
SOUTHERN WYOMING

CITY           SKY/WX    TMP DP  RH WIND       PRES   REMARKS
EVANSTON       FAIR      65  18  16 E8        30.27F
KEMMERER         N/A     64  18  16 SE6       30.29F
FORT BRIDGER   CLEAR     66  18  15 CALM      30.31F
ROCK SPRINGS   FAIR      64  21  19 VRB3      30.27F
DIXON          CLOUDY    65  30  26 NW13      30.27F
RAWLINS        FAIR      64  26  23 NW12      30.27F
SARATOGA       FAIR      61  27  27 N9G16     30.29F
LARAMIE        FAIR      56  35  45 W10       30.28F
CHEYENNE       FAIR      61  32  33 NW16G24   30.23F
TORRINGTON     FAIR      72  34  24 N13G25    30.11F
PINE BLUFFS    FAIR      64  34  32 N14G22    30.18S

$$



USA.gov is the U.S. government's official web portal to all federal, state and local government web resources and services.